owner,sensor,date,latitude,longitude,air_pressure(mBar),qcFlag 
COMPS,ioos:station:USF.COMPS:C12:1,2016-09-01T00:05:00Z,27.4980,-83.7220,1009.13,1111122 
COMPS,ioos:station:USF.COMPS:C12:1,2016-09-01T00:35:00Z,27.4980,-83.7220,1009.27,1111122 
COMPS,ioos:station:USF.COMPS:C12:1,2016-09-01T01:05:00Z,27.4980,-83.7220,1009.13,1111122 
COMPS,ioos:station:USF.COMPS:C12:1,2016-09-01T01:35:00Z,27.4980,-83.7220,1009.16,1111122 
COMPS,ioos:station:USF.COMPS:C12:1,2016-09-01T02:05:00Z,27.4980,-83.7220,1009.16,1111122 
COMPS,ioos:station:USF.COMPS:C12:1,2016-09-01T02:35:00Z,27.4980,-83.7220,1009.33,1111122 
COMPS,ioos:station:USF.COMPS:C12:1,2016-09-01T03:05:00Z,27.4980,-83.7220,1009.38,1111122 
COMPS,ioos:station:USF.COMPS:C12:1,2016-09-01T03:35:00Z,27.4980,-83.7220,1009.3,1111122 
COMPS,ioos:station:USF.COMPS:C12:1,2016-09-01T04:05:00Z,27.4980,-83.7220,1009.37,1111122 
COMPS,ioos:station:USF.COMPS:C12:1,2016-09-01T04:35:00Z,27.4980,-83.7220,1009.06,1111122 
COMPS,ioos:station:USF.COMPS:C12:1,2016-09-01T05:05:00Z,27.4980,-83.7220,1008.62,1111122 
COMPS,ioos:station:USF.COMPS:C12:1,2016-09-01T05:35:00Z,27.4980,-83.7220,1008.45,1111122 
COMPS,ioos:station:USF.COMPS:C12:1,2016-09-01T06:05:00Z,27.4980,-83.7220,1008.22,1111122 
COMPS,ioos:station:USF.COMPS:C12:1,2016-09-01T06:35:00Z,27.4980,-83.7220,1007.79,1111122 
COMPS,ioos:station:USF.COMPS:C12:1,2016-09-01T07:05:00Z,27.4980,-83.7220,1007.21,1111122 
COMPS,ioos:station:USF.COMPS:C12:1,2016-09-01T07:35:00Z,27.4980,-83.7220,1006.66,1111122 
COMPS,ioos:station:USF.COMPS:C12:1,2016-09-01T08:05:00Z,27.4980,-83.7220,1006.71,1111122 
COMPS,ioos:station:USF.COMPS:C12:1,2016-09-01T08:35:00Z,27.4980,-83.7220,1006.22,1111122 
COMPS,ioos:station:USF.COMPS:C12:1,2016-09-01T09:05:00Z,27.4980,-83.7220,1005.79,1111122 
COMPS,ioos:station:USF.COMPS:C12:1,2016-09-01T09:35:00Z,27.4980,-83.7220,1005.59,1111122 
COMPS,ioos:station:USF.COMPS:C12:1,2016-09-01T10:05:00Z,27.4980,-83.7220,1005.69,1111122 
COMPS,ioos:station:USF.COMPS:C12:1,2016-09-01T10:35:00Z,27.4980,-83.7220,1005.49,1111122 
COMPS,ioos:station:USF.COMPS:C12:1,2016-09-01T11:05:00Z,27.4980,-83.7220,1005.5,1111122 
COMPS,ioos:station:USF.COMPS:C12:1,2016-09-01T11:35:00Z,27.4980,-83.7220,1005.45,1111122 
COMPS,ioos:station:USF.COMPS:C12:1,2016-09-01T12:05:00Z,27.4980,-83.7220,1005.32,1111122 
COMPS,ioos:station:USF.COMPS:C12:1,2016-09-01T12:35:00Z,27.4980,-83.7220,1005.59,1111122 
COMPS,ioos:station:USF.COMPS:C12:1,2016-09-01T13:05:00Z,27.4980,-83.7220,1005.55,1111122 
COMPS,ioos:station:USF.COMPS:C12:1,2016-09-01T13:35:00Z,27.4980,-83.7220,1005.64,1111122 
COMPS,ioos:station:USF.COMPS:C12:1,2016-09-01T14:05:00Z,27.4980,-83.7220,1005.92,1111122 
COMPS,ioos:station:USF.COMPS:C12:1,2016-09-01T14:35:00Z,27.4980,-83.7220,1006.08,1111122 
COMPS,ioos:station:USF.COMPS:C12:1,2016-09-01T15:05:00Z,27.4980,-83.7220,1006.12,1111122 
COMPS,ioos:station:USF.COMPS:C12:1,2016-09-01T15:35:00Z,27.4980,-83.7220,1006.16,1111122 
COMPS,ioos:station:USF.COMPS:C12:1,2016-09-01T16:05:00Z,27.4980,-83.7220,1005.83,1111122 
COMPS,ioos:station:USF.COMPS:C12:1,2016-09-01T16:35:00Z,27.4980,-83.7220,1005.8,1111122 
COMPS,ioos:station:USF.COMPS:C12:1,2016-09-01T17:05:00Z,27.4980,-83.7220,1005.69,1111122 
COMPS,ioos:station:USF.COMPS:C12:1,2016-09-01T17:35:00Z,27.4980,-83.7220,1005.27,1111122 
COMPS,ioos:station:USF.COMPS:C12:1,2016-09-01T18:05:00Z,27.4980,-83.7220,1004.37,1111122 
COMPS,ioos:station:USF.COMPS:C12:1,2016-09-01T18:35:00Z,27.4980,-83.7220,1003.91,1111122 
COMPS,ioos:station:USF.COMPS:C12:1,2016-09-01T19:05:00Z,27.4980,-83.7220,1003.56,1111122 
COMPS,ioos:station:USF.COMPS:C12:1,2016-09-01T19:35:00Z,27.4980,-83.7220,1003.12,1111122 
COMPS,ioos:station:USF.COMPS:C12:1,2016-09-01T20:05:00Z,27.4980,-83.7220,1002.72,1111122 
COMPS,ioos:station:USF.COMPS:C12:1,2016-09-01T20:35:00Z,27.4980,-83.7220,1002.82,1111122 
COMPS,ioos:station:USF.COMPS:C12:1,2016-09-01T21:05:00Z,27.4980,-83.7220,1001.79,1111122 
COMPS,ioos:station:USF.COMPS:C12:1,2016-09-01T21:35:00Z,27.4980,-83.7220,1001.86,1111122 
COMPS,ioos:station:USF.COMPS:C12:1,2016-09-01T22:05:00Z,27.4980,-83.7220,1002.32,1111122 
COMPS,ioos:station:USF.COMPS:C12:1,2016-09-01T22:25:00Z,27.4980,-83.7220,1002.28,1111122 
COMPS,ioos:station:USF.COMPS:C12:1,2016-09-01T23:05:00Z,27.4980,-83.7220,1002.44,1111122 
COMPS,ioos:station:USF.COMPS:C12:1,2016-09-01T23:35:00Z,27.4980,-83.7220,1002.67,1111122 
COMPS,ioos:station:USF.COMPS:C12:1,2016-09-02T00:05:00Z,27.4980,-83.7220,1002.56,1111122 
COMPS,ioos:station:USF.COMPS:C12:1,2016-09-02T00:35:00Z,27.4980,-83.7220,1003.01,1111122 
COMPS,ioos:station:USF.COMPS:C12:1,2016-09-02T01:05:00Z,27.4980,-83.7220,1003.72,1111122 
COMPS,ioos:station:USF.COMPS:C12:1,2016-09-02T01:35:00Z,27.4980,-83.7220,1003.9,1111122 
COMPS,ioos:station:USF.COMPS:C12:1,2016-09-02T02:05:00Z,27.4980,-83.7220,1004.4,1111122 
COMPS,ioos:station:USF.COMPS:C12:1,2016-09-02T02:35:00Z,27.4980,-83.7220,1004.53,1111122 
COMPS,ioos:station:USF.COMPS:C12:1,2016-09-02T03:05:00Z,27.4980,-83.7220,1005.61,1111122 
COMPS,ioos:station:USF.COMPS:C12:1,2016-09-02T03:35:00Z,27.4980,-83.7220,1005.75,1111122 
COMPS,ioos:station:USF.COMPS:C12:1,2016-09-02T04:05:00Z,27.4980,-83.7220,1006.45,1111122 
COMPS,ioos:station:USF.COMPS:C12:1,2016-09-02T04:35:00Z,27.4980,-83.7220,1006.61,1111122 
COMPS,ioos:station:USF.COMPS:C12:1,2016-09-02T05:05:00Z,27.4980,-83.7220,1007.22,1111122 
COMPS,ioos:station:USF.COMPS:C12:1,2016-09-02T05:35:00Z,27.4980,-83.7220,1007.22,1111122 
COMPS,ioos:station:USF.COMPS:C12:1,2016-09-02T06:05:00Z,27.4980,-83.7220,1005.61,1111122 
COMPS,ioos:station:USF.COMPS:C12:1,2016-09-02T06:35:00Z,27.4980,-83.7220,1005.94,1111122 
COMPS,ioos:station:USF.COMPS:C12:1,2016-09-02T07:05:00Z,27.4980,-83.7220,1006.26,1111122 
COMPS,ioos:station:USF.COMPS:C12:1,2016-09-02T07:35:00Z,27.4980,-83.7220,1007.01,1111122 
COMPS,ioos:station:USF.COMPS:C12:1,2016-09-02T08:05:00Z,27.4980,-83.7220,1007.2,1111122 
COMPS,ioos:station:USF.COMPS:C12:1,2016-09-02T08:35:00Z,27.4980,-83.7220,1007.72,1111122 
COMPS,ioos:station:USF.COMPS:C12:1,2016-09-02T09:05:00Z,27.4980,-83.7220,1007.83,1111122 
COMPS,ioos:station:USF.COMPS:C12:1,2016-09-02T09:35:00Z,27.4980,-83.7220,1008.17,1111122 
COMPS,ioos:station:USF.COMPS:C12:1,2016-09-02T10:05:00Z,27.4980,-83.7220,1008.17,1111122 
COMPS,ioos:station:USF.COMPS:C12:1,2016-09-02T10:35:00Z,27.4980,-83.7220,1008.68,1111122 
COMPS,ioos:station:USF.COMPS:C12:1,2016-09-02T11:05:00Z,27.4980,-83.7220,1009.18,1111122 
COMPS,ioos:station:USF.COMPS:C12:1,2016-09-02T11:35:00Z,27.4980,-83.7220,1009.54,1111122 
COMPS,ioos:station:USF.COMPS:C12:1,2016-09-02T12:05:00Z,27.4980,-83.7220,1009.78,1111122 
COMPS,ioos:station:USF.COMPS:C12:1,2016-09-02T12:35:00Z,27.4980,-83.7220,1009.97,1111122 
COMPS,ioos:station:USF.COMPS:C12:1,2016-09-02T13:05:00Z,27.4980,-83.7220,1010.64,1111122 
COMPS,ioos:station:USF.COMPS:C12:1,2016-09-02T13:35:00Z,27.4980,-83.7220,1010.81,1111122 
COMPS,ioos:station:USF.COMPS:C12:1,2016-09-02T14:05:00Z,27.4980,-83.7220,1010.78,1111122 
COMPS,ioos:station:USF.COMPS:C12:1,2016-09-02T14:35:00Z,27.4980,-83.7220,1010.79,1111122 
COMPS,ioos:station:USF.COMPS:C12:1,2016-09-02T15:05:00Z,27.4980,-83.7220,1011.16,1111122 
COMPS,ioos:station:USF.COMPS:C12:1,2016-09-02T15:35:00Z,27.4980,-83.7220,1011.41,1111122 
COMPS,ioos:station:USF.COMPS:C12:1,2016-09-02T16:05:00Z,27.4980,-83.7220,1011.67,1111122 
COMPS,ioos:station:USF.COMPS:C12:1,2016-09-02T16:35:00Z,27.4980,-83.7220,1011.68,1111122 
COMPS,ioos:station:USF.COMPS:C12:1,2016-09-02T17:05:00Z,27.4980,-83.7220,1011.54,1111122 
COMPS,ioos:station:USF.COMPS:C12:1,2016-09-02T17:35:00Z,27.4980,-83.7220,1011.23,1111122 
COMPS,ioos:station:USF.COMPS:C12:1,2016-09-02T18:05:00Z,27.4980,-83.7220,1011.44,1111122 
COMPS,ioos:station:USF.COMPS:C12:1,2016-09-02T18:35:00Z,27.4980,-83.7220,1011.73,1111122 
COMPS,ioos:station:USF.COMPS:C12:1,2016-09-02T19:05:00Z,27.4980,-83.7220,1011.6,1111122 
COMPS,ioos:station:USF.COMPS:C12:1,2016-09-02T19:35:00Z,27.4980,-83.7220,1011.88,1111122 
COMPS,ioos:station:USF.COMPS:C12:1,2016-09-02T20:05:00Z,27.4980,-83.7220,1011.65,1111122 
COMPS,ioos:station:USF.COMPS:C12:1,2016-09-02T20:35:00Z,27.4980,-83.7220,1011.79,1111122 
COMPS,ioos:station:USF.COMPS:C12:1,2016-09-02T21:05:00Z,27.4980,-83.7220,1011.4,1111122 
COMPS,ioos:station:USF.COMPS:C12:1,2016-09-02T21:35:00Z,27.4980,-83.7220,1011.17,1111122 
COMPS,ioos:station:USF.COMPS:C12:1,2016-09-02T22:05:00Z,27.4980,-83.7220,1011.45,1111122 
COMPS,ioos:station:USF.COMPS:C12:1,2016-09-02T22:35:00Z,27.4980,-83.7220,1011.44,1111122 
COMPS,ioos:station:USF.COMPS:C12:1,2016-09-02T23:05:00Z,27.4980,-83.7220,1011.65,1111122 
COMPS,ioos:station:USF.COMPS:C12:1,2016-09-02T23:35:00Z,27.4980,-83.7220,1012.02,1111122 
COMPS,ioos:station:USF.COMPS:C12:1,2016-09-03T00:05:00Z,27.4980,-83.7220,1012.29,1111122 
COMPS,ioos:station:USF.COMPS:C12:1,2016-09-03T00:35:00Z,27.4980,-83.7220,1012.69,1111122 
COMPS,ioos:station:USF.COMPS:C12:1,2016-09-03T01:05:00Z,27.4980,-83.7220,1013.05,1111122 
COMPS,ioos:station:USF.COMPS:C12:1,2016-09-03T01:35:00Z,27.4980,-83.7220,1013.16,1111122 
COMPS,ioos:station:USF.COMPS:C12:1,2016-09-03T02:05:00Z,27.4980,-83.7220,1013.31,1111122 
COMPS,ioos:station:USF.COMPS:C12:1,2016-09-03T02:35:00Z,27.4980,-83.7220,1013.24,1111122 
COMPS,ioos:station:USF.COMPS:C12:1,2016-09-03T03:05:00Z,27.4980,-83.7220,1012.91,1111122 
COMPS,ioos:station:USF.COMPS:C12:1,2016-09-03T03:35:00Z,27.4980,-83.7220,1012.96,1111122 
COMPS,ioos:station:USF.COMPS:C12:1,2016-09-03T04:05:00Z,27.4980,-83.7220,1012.72,1111122 
COMPS,ioos:station:USF.COMPS:C12:1,2016-09-03T04:35:00Z,27.4980,-83.7220,1012.67,1111122 
COMPS,ioos:station:USF.COMPS:C12:1,2016-09-03T05:05:00Z,27.4980,-83.7220,1012.65,1111122 
COMPS,ioos:station:USF.COMPS:C12:1,2016-09-03T05:35:00Z,27.4980,-83.7220,1012.6,1111122 
COMPS,ioos:station:USF.COMPS:C12:1,2016-09-03T06:05:00Z,27.4980,-83.7220,1012.5,1111122 
COMPS,ioos:station:USF.COMPS:C12:1,2016-09-03T06:35:00Z,27.4980,-83.7220,1012.84,1111122 
COMPS,ioos:station:USF.COMPS:C12:1,2016-09-03T07:05:00Z,27.4980,-83.7220,1012.75,1111122 
COMPS,ioos:station:USF.COMPS:C12:1,2016-09-03T07:35:00Z,27.4980,-83.7220,1012.82,1111122 
COMPS,ioos:station:USF.COMPS:C12:1,2016-09-03T08:05:00Z,27.4980,-83.7220,1012.69,1111122 
COMPS,ioos:station:USF.COMPS:C12:1,2016-09-03T08:35:00Z,27.4980,-83.7220,1012.29,1111122 
COMPS,ioos:station:USF.COMPS:C12:1,2016-09-03T09:05:00Z,27.4980,-83.7220,1012.41,1111122 
COMPS,ioos:station:USF.COMPS:C12:1,2016-09-03T09:35:00Z,27.4980,-83.7220,1012.44,1111122 
COMPS,ioos:station:USF.COMPS:C12:1,2016-09-03T10:05:00Z,27.4980,-83.7220,1012.51,1111122 
COMPS,ioos:station:USF.COMPS:C12:1,2016-09-03T10:35:00Z,27.4980,-83.7220,1012.81,1111122 
COMPS,ioos:station:USF.COMPS:C12:1,2016-09-03T11:05:00Z,27.4980,-83.7220,1013.07,1111122 
COMPS,ioos:station:USF.COMPS:C12:1,2016-09-03T11:35:00Z,27.4980,-83.7220,1013.09,1111122 
COMPS,ioos:station:USF.COMPS:C12:1,2016-09-03T12:05:00Z,27.4980,-83.7220,1013.65,1111122 
COMPS,ioos:station:USF.COMPS:C12:1,2016-09-03T12:35:00Z,27.4980,-83.7220,1014.06,1111122 
COMPS,ioos:station:USF.COMPS:C12:1,2016-09-03T13:05:00Z,27.4980,-83.7220,1014.52,1111122 
COMPS,ioos:station:USF.COMPS:C12:1,2016-09-03T13:35:00Z,27.4980,-83.7220,1014.6,1111122 
COMPS,ioos:station:USF.COMPS:C12:1,2016-09-03T14:05:00Z,27.4980,-83.7220,1014.66,1111122 
COMPS,ioos:station:USF.COMPS:C12:1,2016-09-03T14:35:00Z,27.4980,-83.7220,1014.57,1111122 
COMPS,ioos:station:USF.COMPS:C12:1,2016-09-03T15:05:00Z,27.4980,-83.7220,1014.12,1111122 
COMPS,ioos:station:USF.COMPS:C12:1,2016-09-03T15:35:00Z,27.4980,-83.7220,1014.91,1111122 
COMPS,ioos:station:USF.COMPS:C12:1,2016-09-03T16:05:00Z,27.4980,-83.7220,1015.59,1111122 
COMPS,ioos:station:USF.COMPS:C12:1,2016-09-03T16:35:00Z,27.4980,-83.7220,1015.83,1111122 
COMPS,ioos:station:USF.COMPS:C12:1,2016-09-03T17:05:00Z,27.4980,-83.7220,1015.53,1111122 
COMPS,ioos:station:USF.COMPS:C12:1,2016-09-03T17:35:00Z,27.4980,-83.7220,1015.25,1111122 
COMPS,ioos:station:USF.COMPS:C12:1,2016-09-03T18:05:00Z,27.4980,-83.7220,1014.64,1111122 
COMPS,ioos:station:USF.COMPS:C12:1,2016-09-03T18:35:00Z,27.4980,-83.7220,1015.01,1111122 
COMPS,ioos:station:USF.COMPS:C12:1,2016-09-03T19:05:00Z,27.4980,-83.7220,1015.02,1111122 
COMPS,ioos:station:USF.COMPS:C12:1,2016-09-03T19:35:00Z,27.4980,-83.7220,1014.63,1111122 
COMPS,ioos:station:USF.COMPS:C12:1,2016-09-03T20:05:00Z,27.4980,-83.7220,1014.12,1111122 
COMPS,ioos:station:USF.COMPS:C12:1,2016-09-03T20:35:00Z,27.4980,-83.7220,1014.19,1111122 
COMPS,ioos:station:USF.COMPS:C12:1,2016-09-03T21:05:00Z,27.4980,-83.7220,1013.77,1111122 
COMPS,ioos:station:USF.COMPS:C12:1,2016-09-03T21:35:00Z,27.4980,-83.7220,1013.65,1111122 
COMPS,ioos:station:USF.COMPS:C12:1,2016-09-03T22:05:00Z,27.4980,-83.7220,1013.59,1111122 
COMPS,ioos:station:USF.COMPS:C12:1,2016-09-03T22:35:00Z,27.4980,-83.7220,1013.85,1111122 
COMPS,ioos:station:USF.COMPS:C12:1,2016-09-03T23:05:00Z,27.4980,-83.7220,1014.1,1111122 
COMPS,ioos:station:USF.COMPS:C12:1,2016-09-03T23:35:00Z,27.4980,-83.7220,1014.61,1111122 
COMPS,ioos:station:USF.COMPS:C12:1,2016-09-04T00:05:00Z,27.4980,-83.7220,1014.76,1111122 
COMPS,ioos:station:USF.COMPS:C12:1,2016-09-04T00:35:00Z,27.4980,-83.7220,1015.02,1111122 
COMPS,ioos:station:USF.COMPS:C12:1,2016-09-04T01:05:00Z,27.4980,-83.7220,1015.02,1111122 
COMPS,ioos:station:USF.COMPS:C12:1,2016-09-04T01:35:00Z,27.4980,-83.7220,1015.29,1111122 
COMPS,ioos:station:USF.COMPS:C12:1,2016-09-04T02:05:00Z,27.4980,-83.7220,1015.93,1111122 
COMPS,ioos:station:USF.COMPS:C12:1,2016-09-04T02:35:00Z,27.4980,-83.7220,1015.95,1111122 
COMPS,ioos:station:USF.COMPS:C12:1,2016-09-04T03:05:00Z,27.4980,-83.7220,1015.86,1111122 
COMPS,ioos:station:USF.COMPS:C12:1,2016-09-04T03:35:00Z,27.4980,-83.7220,1015.47,1111122 
COMPS,ioos:station:USF.COMPS:C12:1,2016-09-04T04:05:00Z,27.4980,-83.7220,1015.43,1111122 
COMPS,ioos:station:USF.COMPS:C12:1,2016-09-04T04:35:00Z,27.4980,-83.7220,1015.56,1111122 
COMPS,ioos:station:USF.COMPS:C12:1,2016-09-04T05:05:00Z,27.4980,-83.7220,1015.63,1111122 
COMPS,ioos:station:USF.COMPS:C12:1,2016-09-04T05:35:00Z,27.4980,-83.7220,1015.43,1111122 
COMPS,ioos:station:USF.COMPS:C12:1,2016-09-04T06:05:00Z,27.4980,-83.7220,1015.29,1111122 
COMPS,ioos:station:USF.COMPS:C12:1,2016-09-04T06:35:00Z,27.4980,-83.7220,1015.12,1111122 
COMPS,ioos:station:USF.COMPS:C12:1,2016-09-04T07:05:00Z,27.4980,-83.7220,1015.01,1111122 
COMPS,ioos:station:USF.COMPS:C12:1,2016-09-04T07:35:00Z,27.4980,-83.7220,1014.77,1111122 
COMPS,ioos:station:USF.COMPS:C12:1,2016-09-04T08:05:00Z,27.4980,-83.7220,1014.75,1111122 
COMPS,ioos:station:USF.COMPS:C12:1,2016-09-04T08:35:00Z,27.4980,-83.7220,1014.76,1111122 
COMPS,ioos:station:USF.COMPS:C12:1,2016-09-04T09:05:00Z,27.4980,-83.7220,1014.81,1111122 
COMPS,ioos:station:USF.COMPS:C12:1,2016-09-04T09:35:00Z,27.4980,-83.7220,1015.01,1111122 
COMPS,ioos:station:USF.COMPS:C12:1,2016-09-04T10:05:00Z,27.4980,-83.7220,1015.04,1111122 
COMPS,ioos:station:USF.COMPS:C12:1,2016-09-04T10:35:00Z,27.4980,-83.7220,1015.3,1111122 
COMPS,ioos:station:USF.COMPS:C12:1,2016-09-04T11:05:00Z,27.4980,-83.7220,1015.57,1111122 
COMPS,ioos:station:USF.COMPS:C12:1,2016-09-04T11:35:00Z,27.4980,-83.7220,1015.57,1111122 
COMPS,ioos:station:USF.COMPS:C12:1,2016-09-04T12:05:00Z,27.4980,-83.7220,1015.91,1111122 
COMPS,ioos:station:USF.COMPS:C12:1,2016-09-04T12:35:00Z,27.4980,-83.7220,1015.86,1111122 
COMPS,ioos:station:USF.COMPS:C12:1,2016-09-04T13:05:00Z,27.4980,-83.7220,1016.13,1111122 
COMPS,ioos:station:USF.COMPS:C12:1,2016-09-04T13:35:00Z,27.4980,-83.7220,1016.39,1111122 
COMPS,ioos:station:USF.COMPS:C12:1,2016-09-04T14:05:00Z,27.4980,-83.7220,1016.71,1111122 
COMPS,ioos:station:USF.COMPS:C12:1,2016-09-04T14:35:00Z,27.4980,-83.7220,1016.9,1111122 
COMPS,ioos:station:USF.COMPS:C12:1,2016-09-04T15:05:00Z,27.4980,-83.7220,1017.07,1111122 
COMPS,ioos:station:USF.COMPS:C12:1,2016-09-04T15:35:00Z,27.4980,-83.7220,1017.3,1111122 
COMPS,ioos:station:USF.COMPS:C12:1,2016-09-04T16:05:00Z,27.4980,-83.7220,1017.32,1111122 
COMPS,ioos:station:USF.COMPS:C12:1,2016-09-04T16:35:00Z,27.4980,-83.7220,1017.3,1111122 
COMPS,ioos:station:USF.COMPS:C12:1,2016-09-04T17:05:00Z,27.4980,-83.7220,1017.05,1111122 
COMPS,ioos:station:USF.COMPS:C12:1,2016-09-04T17:35:00Z,27.4980,-83.7220,1016.88,1111122 
COMPS,ioos:station:USF.COMPS:C12:1,2016-09-04T18:05:00Z,27.4980,-83.7220,1016.71,1111122 
COMPS,ioos:station:USF.COMPS:C12:1,2016-09-04T18:35:00Z,27.4980,-83.7220,1016.27,1111122 
COMPS,ioos:station:USF.COMPS:C12:1,2016-09-04T19:05:00Z,27.4980,-83.7220,1015.96,1111122 
COMPS,ioos:station:USF.COMPS:C12:1,2016-09-04T19:35:00Z,27.4980,-83.7220,1015.65,1111122 
COMPS,ioos:station:USF.COMPS:C12:1,2016-09-04T20:05:00Z,27.4980,-83.7220,1015.28,1111122 
COMPS,ioos:station:USF.COMPS:C12:1,2016-09-04T20:35:00Z,27.4980,-83.7220,1015.03,1111122 
COMPS,ioos:station:USF.COMPS:C12:1,2016-09-04T21:05:00Z,27.4980,-83.7220,1015.03,1111122 
COMPS,ioos:station:USF.COMPS:C12:1,2016-09-04T21:35:00Z,27.4980,-83.7220,1015.07,1111122 
COMPS,ioos:station:USF.COMPS:C12:1,2016-09-04T22:05:00Z,27.4980,-83.7220,1015.03,1111122 
COMPS,ioos:station:USF.COMPS:C12:1,2016-09-04T22:35:00Z,27.4980,-83.7220,1014.9,1111122 
COMPS,ioos:station:USF.COMPS:C12:1,2016-09-04T23:05:00Z,27.4980,-83.7220,1015.03,1111122 
COMPS,ioos:station:USF.COMPS:C12:1,2016-09-04T23:35:00Z,27.4980,-83.7220,1015.55,1111122 
COMPS,ioos:station:USF.COMPS:C12:1,2016-09-05T00:05:00Z,27.4980,-83.7220,1015.62,1111122 
COMPS,ioos:station:USF.COMPS:C12:1,2016-09-05T00:35:00Z,27.4980,-83.7220,1015.67,1111122 
COMPS,ioos:station:USF.COMPS:C12:1,2016-09-05T01:05:00Z,27.4980,-83.7220,1015.88,1111122 
COMPS,ioos:station:USF.COMPS:C12:1,2016-09-05T01:35:00Z,27.4980,-83.7220,1016.18,1111122 
COMPS,ioos:station:USF.COMPS:C12:1,2016-09-05T02:05:00Z,27.4980,-83.7220,1016.67,1111122 
COMPS,ioos:station:USF.COMPS:C12:1,2016-09-05T02:35:00Z,27.4980,-83.7220,1017.16,1111122 
COMPS,ioos:station:USF.COMPS:C12:1,2016-09-05T03:05:00Z,27.4980,-83.7220,1017.22,1111122 
COMPS,ioos:station:USF.COMPS:C12:1,2016-09-05T03:35:00Z,27.4980,-83.7220,1017.21,1111122 
COMPS,ioos:station:USF.COMPS:C12:1,2016-09-05T04:05:00Z,27.4980,-83.7220,1017.13,1111122 
COMPS,ioos:station:USF.COMPS:C12:1,2016-09-05T04:35:00Z,27.4980,-83.7220,1016.89,1111122 
COMPS,ioos:station:USF.COMPS:C12:1,2016-09-05T05:05:00Z,27.4980,-83.7220,1016.74,1111122 
COMPS,ioos:station:USF.COMPS:C12:1,2016-09-05T05:35:00Z,27.4980,-83.7220,1016.49,1111122 
COMPS,ioos:station:USF.COMPS:C12:1,2016-09-05T06:05:00Z,27.4980,-83.7220,1016.4,1111122 
COMPS,ioos:station:USF.COMPS:C12:1,2016-09-05T06:35:00Z,27.4980,-83.7220,1016.19,1111122 
COMPS,ioos:station:USF.COMPS:C12:1,2016-09-05T07:05:00Z,27.4980,-83.7220,1016.18,1111122 
COMPS,ioos:station:USF.COMPS:C12:1,2016-09-05T07:35:00Z,27.4980,-83.7220,1015.88,1111122 
COMPS,ioos:station:USF.COMPS:C12:1,2016-09-05T08:05:00Z,27.4980,-83.7220,1015.56,1111122 
COMPS,ioos:station:USF.COMPS:C12:1,2016-09-05T08:35:00Z,27.4980,-83.7220,1015.66,1111122 
COMPS,ioos:station:USF.COMPS:C12:1,2016-09-05T09:05:00Z,27.4980,-83.7220,1015.69,1111122 
COMPS,ioos:station:USF.COMPS:C12:1,2016-09-05T09:35:00Z,27.4980,-83.7220,1015.83,1111122 
COMPS,ioos:station:USF.COMPS:C12:1,2016-09-05T10:05:00Z,27.4980,-83.7220,1015.83,1111122 
COMPS,ioos:station:USF.COMPS:C12:1,2016-09-05T10:35:00Z,27.4980,-83.7220,1016.05,1111122 
COMPS,ioos:station:USF.COMPS:C12:1,2016-09-05T11:05:00Z,27.4980,-83.7220,1016.47,1111122 
COMPS,ioos:station:USF.COMPS:C12:1,2016-09-05T11:35:00Z,27.4980,-83.7220,1016.71,1111122 
COMPS,ioos:station:USF.COMPS:C12:1,2016-09-05T12:05:00Z,27.4980,-83.7220,1016.98,1111122 
COMPS,ioos:station:USF.COMPS:C12:1,2016-09-05T12:35:00Z,27.4980,-83.7220,1017.27,1111122 
COMPS,ioos:station:USF.COMPS:C12:1,2016-09-05T13:05:00Z,27.4980,-83.7220,1017.71,1111122 
COMPS,ioos:station:USF.COMPS:C12:1,2016-09-05T13:35:00Z,27.4980,-83.7220,1017.82,1111122 
COMPS,ioos:station:USF.COMPS:C12:1,2016-09-05T14:05:00Z,27.4980,-83.7220,1017.98,1111122 
COMPS,ioos:station:USF.COMPS:C12:1,2016-09-05T14:35:00Z,27.4980,-83.7220,1018.02,1111122 
COMPS,ioos:station:USF.COMPS:C12:1,2016-09-05T15:05:00Z,27.4980,-83.7220,1018.13,1111122 
COMPS,ioos:station:USF.COMPS:C12:1,2016-09-05T15:35:00Z,27.4980,-83.7220,1018.16,1111122 
COMPS,ioos:station:USF.COMPS:C12:1,2016-09-05T16:05:00Z,27.4980,-83.7220,1018.2,1111122 
COMPS,ioos:station:USF.COMPS:C12:1,2016-09-05T16:35:00Z,27.4980,-83.7220,1017.93,1111122 
COMPS,ioos:station:USF.COMPS:C12:1,2016-09-05T17:05:00Z,27.4980,-83.7220,1017.83,1111122 
COMPS,ioos:station:USF.COMPS:C12:1,2016-09-05T17:35:00Z,27.4980,-83.7220,1017.65,1111122 
COMPS,ioos:station:USF.COMPS:C12:1,2016-09-05T18:05:00Z,27.4980,-83.7220,1017.47,1111122 
COMPS,ioos:station:USF.COMPS:C12:1,2016-09-05T18:35:00Z,27.4980,-83.7220,1017.06,1111122 
COMPS,ioos:station:USF.COMPS:C12:1,2016-09-05T19:05:00Z,27.4980,-83.7220,1016.85,1111122 
COMPS,ioos:station:USF.COMPS:C12:1,2016-09-05T19:35:00Z,27.4980,-83.7220,1016.56,1111122 
COMPS,ioos:station:USF.COMPS:C12:1,2016-09-05T20:05:00Z,27.4980,-83.7220,1016.29,1111122 
COMPS,ioos:station:USF.COMPS:C12:1,2016-09-05T20:35:00Z,27.4980,-83.7220,1015.91,1111122 
COMPS,ioos:station:USF.COMPS:C12:1,2016-09-05T21:05:00Z,27.4980,-83.7220,1015.65,1111122 
COMPS,ioos:station:USF.COMPS:C12:1,2016-09-05T21:35:00Z,27.4980,-83.7220,1015.8,1111122 
COMPS,ioos:station:USF.COMPS:C12:1,2016-09-05T22:05:00Z,27.4980,-83.7220,1015.91,1111122 
COMPS,ioos:station:USF.COMPS:C12:1,2016-09-05T22:35:00Z,27.4980,-83.7220,1016.18,1111122 
COMPS,ioos:station:USF.COMPS:C12:1,2016-09-05T23:05:00Z,27.4980,-83.7220,1016.18,1111122 
COMPS,ioos:station:USF.COMPS:C12:1,2016-09-05T23:35:00Z,27.4980,-83.7220,1016.25,1111122 
COMPS,ioos:station:USF.COMPS:C12:1,2016-09-06T00:05:00Z,27.4980,-83.7220,1016.4,1111122 
COMPS,ioos:station:USF.COMPS:C12:1,2016-09-06T00:35:00Z,27.4980,-83.7220,1016.47,1111122 
COMPS,ioos:station:USF.COMPS:C12:1,2016-09-06T01:05:00Z,27.4980,-83.7220,1017.04,1111122 
COMPS,ioos:station:USF.COMPS:C12:1,2016-09-06T01:35:00Z,27.4980,-83.7220,1017.25,1111122 
COMPS,ioos:station:USF.COMPS:C12:1,2016-09-06T02:05:00Z,27.4980,-83.7220,1017.58,1111122 
COMPS,ioos:station:USF.COMPS:C12:1,2016-09-06T02:35:00Z,27.4980,-83.7220,1017.86,1111122 
COMPS,ioos:station:USF.COMPS:C12:1,2016-09-06T03:05:00Z,27.4980,-83.7220,1017.84,1111122 
COMPS,ioos:station:USF.COMPS:C12:1,2016-09-06T03:35:00Z,27.4980,-83.7220,1017.83,1111122 
COMPS,ioos:station:USF.COMPS:C12:1,2016-09-06T04:05:00Z,27.4980,-83.7220,1017.85,1111122 
COMPS,ioos:station:USF.COMPS:C12:1,2016-09-06T04:35:00Z,27.4980,-83.7220,1017.71,1111122 
COMPS,ioos:station:USF.COMPS:C12:1,2016-09-06T05:05:00Z,27.4980,-83.7220,1017.58,1111122 
COMPS,ioos:station:USF.COMPS:C12:1,2016-09-06T05:35:00Z,27.4980,-83.7220,1017.43,1111122 
COMPS,ioos:station:USF.COMPS:C12:1,2016-09-06T06:05:00Z,27.4980,-83.7220,1017.26,1111122 
COMPS,ioos:station:USF.COMPS:C12:1,2016-09-06T06:35:00Z,27.4980,-83.7220,1017.16,1111122 
COMPS,ioos:station:USF.COMPS:C12:1,2016-09-06T07:05:00Z,27.4980,-83.7220,1017.02,1111122 
COMPS,ioos:station:USF.COMPS:C12:1,2016-09-06T07:35:00Z,27.4980,-83.7220,1016.92,1111122 
COMPS,ioos:station:USF.COMPS:C12:1,2016-09-06T08:05:00Z,27.4980,-83.7220,1016.78,1111122 
COMPS,ioos:station:USF.COMPS:C12:1,2016-09-06T08:35:00Z,27.4980,-83.7220,1017.03,1111122 
COMPS,ioos:station:USF.COMPS:C12:1,2016-09-06T09:05:00Z,27.4980,-83.7220,1017.01,1111122 
COMPS,ioos:station:USF.COMPS:C12:1,2016-09-06T09:35:00Z,27.4980,-83.7220,1017.07,1111122 
COMPS,ioos:station:USF.COMPS:C12:1,2016-09-06T10:05:00Z,27.4980,-83.7220,1017.27,1111122 
COMPS,ioos:station:USF.COMPS:C12:1,2016-09-06T10:35:00Z,27.4980,-83.7220,1017.43,1111122 
COMPS,ioos:station:USF.COMPS:C12:1,2016-09-06T11:05:00Z,27.4980,-83.7220,1017.85,1111122 
COMPS,ioos:station:USF.COMPS:C12:1,2016-09-06T11:35:00Z,27.4980,-83.7220,1018.1,1111122 
COMPS,ioos:station:USF.COMPS:C12:1,2016-09-06T12:05:00Z,27.4980,-83.7220,1018.19,1111122 
COMPS,ioos:station:USF.COMPS:C12:1,2016-09-06T12:35:00Z,27.4980,-83.7220,1018.62,1111122 